GW3496 Weather Reports


time (UTC)temp
C
wind
direction
speed
KPH
gust
KPH
rain 1hr
cm
rain 24hr
cm
rain mn
cm
humidity
%
barometer
mb
20260509153050 20 205 22.5 38.6 0.00 0.00 0.00 57 1008.4
20260509151539 20 248 12.9 33.8 0.00 0.00 0.00 59 1008.6
20260509150047 19 194 17.7 32.2 0.00 0.00 0.00 60 1008.3
20260509144543 18 215 17.7 37.0 0.00 0.00 0.00 61 1008.7
20260509143043 18 244 20.9 33.8 0.00 0.00 0.00 62 1008.9
20260509141541 17 130 17.7 30.6 0.00 0.00 0.00 63 1008.9
20260509140051 17 207 12.9 29.0 0.00 0.00 0.00 64 1009.3
20260509134545 17 212 16.1 29.0 0.00 0.00 0.00 65 1009.5
20260509133047 16 182 16.1 27.4 0.00 0.00 0.00 66 1009.4
20260509131544 16 191 14.5 24.1 0.00 0.00 0.00 68 1009.4
20260509130048 15 223 9.7 29.0 0.00 0.00 0.00 70 1009.5
20260509124549 15 198 11.3 19.3 0.00 0.00 0.00 71 1009.5
20260509123050 14 139 17.7 30.6 0.00 0.00 0.00 72 1009.4
20260509121547 13 210 9.7 17.7 0.00 0.00 0.00 74 1009.5
20260509120105 13 207 14.5 24.1 0.00 0.00 0.00 75 1009.5
20260509114547 13 199 9.7 30.6 0.00 0.00 0.00 74 1009.5
20260509113054 12 174 12.9 22.5 0.00 0.00 0.00 74 1009.4
20260509111539 12 215 11.3 17.7 0.00 0.00 0.00 73 1009.4
20260509110053 12 209 11.3 19.3 0.00 0.00 0.00 72 1009.2
20260509104545 12 157 4.8 22.5 0.00 0.00 0.00 71 1009.1
20260509103046 12 192 8.0 24.1 0.00 0.00 0.00 71 1009.2
20260509101553 12 211 9.7 16.1 0.00 0.00 0.00 70 1009.3
20260509100052 12 194 4.8 8.0 0.00 0.00 0.00 69 1009.1
20260509094552 12 213 4.8 12.9 0.00 0.00 0.00 68 1009.1
20260509093054 13 198 8.0 14.5 0.00 0.00 0.00 66 1009.3
20260509091622 13 177 3.2 14.5 0.00 0.00 0.00 65 1009.1
20260509090057 13 202 8.0 16.1 0.00 0.00 0.00 64 1009.2
20260509084550 13 193 6.4 12.9 0.00 0.00 0.00 65 1009.2
20260509083054 13 214 6.4 12.9 0.00 0.00 0.00 65 1009.2
20260509081557 13 221 6.4 12.9 0.00 0.00 0.00 65 1009.5
20260509080106 13 286 8.0 12.9 0.00 0.00 0.00 65 1009.7
20260509074555 13 236 3.2 14.5 0.00 0.00 0.00 64 1009.8
20260509073138 13 230 6.4 16.1 0.00 0.00 0.00 63 1010.0
20260509071551 13 205 8.0 17.7 0.00 0.00 0.00 62 1010.0
20260509070100 13 217 8.0 20.9 0.00 0.00 0.00 61 1010.1
20260509064554 13 196 11.3 22.5 0.00 0.00 0.00 60 1010.0
20260509063306 13 209 9.7 17.7 0.00 0.00 0.00 59 1010.2
20260509061534 13 173 9.7 16.1 0.00 0.00 0.00 59 1010.3
20260509060037 13 182 8.0 17.7 0.00 0.00 0.00 58 1010.3
20260509054528 13 208 8.0 19.3 0.00 0.00 0.00 57 1010.1
20260509053033 14 203 9.7 16.1 0.00 0.00 0.00 56 1010.0
20260509051534 14 188 9.7 16.1 0.00 0.00 0.00 55 1010.1
20260509050031 14 207 6.4 17.7 0.00 0.00 0.00 54 1010.3
20260509044538 15 210 9.7 16.1 0.00 0.00 0.00 54 1010.1
20260509043035 15 197 9.7 16.1 0.00 0.00 0.00 53 1010.2
20260509041532 15 202 8.0 17.7 0.00 0.00 0.00 52 1010.1
20260509040048 15 238 9.7 16.1 0.00 0.00 0.00 50 1010.2
20260509034541 16 192 6.4 14.5 0.00 0.00 0.00 49 1010.5
20260509033030 16 208 6.4 11.3 0.00 0.00 0.00 48 1010.7
20260509031535 16 211 3.2 11.3 0.00 0.00 0.00 47 1010.8
20260509030035 17 161 6.4 11.3 0.00 0.00 0.00 46 1010.6
20260509024529 17 201 8.0 12.9 0.00 0.00 0.00 45 1010.7
20260509023032 17 167 6.4 16.1 0.00 0.00 0.00 45 1010.6
20260509021534 17 184 8.0 17.7 0.00 0.00 0.00 44 1010.5
20260509020028 17 203 6.4 16.1 0.00 0.00 0.00 43 1010.3
20260509014535 18 149 6.4 14.5 0.00 0.00 0.00 42 1010.3
20260509013035 18 151 6.4 14.5 0.00 0.00 0.00 41 1010.4
20260509011550 18 186 4.8 16.1 0.00 0.00 0.00 40 1010.4
20260509010038 19 200 8.0 16.1 0.00 0.00 0.00 39 1010.1
20260509004541 19 216 8.0 17.7 0.00 0.00 0.00 39 1010.1
20260509003035 20 205 9.7 19.3 0.00 0.00 0.00 38 1010.1
20260509001533 20 161 11.3 17.7 0.00 0.00 0.00 38 1010.0
20260509000033 20 191 9.7 17.7 0.00 0.00 0.00 37 1009.8
20260508234533 21 180 11.3 19.3 0.00 0.00 0.00 36 1009.4
20260508233030 21 198 16.1 24.1 0.00 0.00 0.00 36 1009.5
20260508231536 21 207 12.9 19.3 0.00 0.00 0.00 35 1009.4
20260508230041 21 210 14.5 29.0 0.00 0.00 0.00 35 1009.2
20260508224534 21 263 11.3 22.5 0.00 0.00 0.00 35 1009.3
20260508223042 21 217 16.1 33.8 0.00 0.00 0.00 34 1009.3
20260508221532 22 325 19.3 33.8 0.00 0.00 0.00 33 1009.4
20260508220036 22 162 11.3 30.6 0.00 0.00 0.00 34 1009.4
20260508214538 22 186 9.7 33.8 0.00 0.00 0.00 33 1009.6
20260508213035 22 209 14.5 38.6 0.00 0.00 0.00 32 1009.6
20260508211534 22 161 17.7 30.6 0.00 0.00 0.00 33 1009.7
20260508210034 22 189 9.7 24.1 0.00 0.00 0.00 32 1009.7
20260508204536 22 223 11.3 27.4 0.00 0.00 0.00 32 1009.8
20260508203040 21 227 6.4 32.2 0.00 0.00 0.00 33 1009.9
20260508201537 21 140 11.3 19.3 0.00 0.00 0.00 33 1009.9
20260508200043 21 235 12.9 27.4 0.00 0.00 0.00 34 1010.3
20260508194540 21 139 12.9 24.1 0.00 0.00 0.00 34 1010.2
20260508193052 22 109 12.9 22.5 0.00 0.00 0.00 33 1010.3
20260508191540 21 242 17.7 29.0 0.00 0.00 0.00 34 1010.7
20260508190037 21 243 12.9 29.0 0.00 0.00 0.00 34 1010.8
20260508184538 20 250 9.7 32.2 0.00 0.03 0.00 35 1011.2
20260508183040 20 236 8.0 24.1 0.00 0.03 0.00 35 1011.6
20260508181549 20 204 8.0 24.1 0.00 0.03 0.00 35 1011.6
20260508180041 20 63 14.5 33.8 0.00 0.03 0.00 36 1011.6
20260508174542 20 280 11.3 20.9 0.00 0.03 0.00 38 1011.9
20260508173035 20 207 14.5 27.4 0.00 0.03 0.00 36 1012.0
20260508171544 19 264 14.5 27.4 0.00 0.03 0.00 37 1012.4
20260508170042 18 252 14.5 22.5 0.00 0.03 0.00 38 1012.5
20260508164540 18 17 9.7 27.4 0.00 0.03 0.00 40 1012.7
20260508163038 18 221 12.9 24.1 0.00 0.03 0.00 38 1013.1
20260508161533 18 236 6.4 17.7 0.00 0.03 0.00 40 1013.4
20260508160057 18 206 8.0 19.3 0.00 0.03 0.00 40 1013.6
20260508154538 17 119 8.0 19.3 0.00 0.03 0.00 39 1013.6